Weather Roundup
Issued by NWS Chicago, IL

Home | Current Version | Previous Version | Graphics & Text | Print | Product List | Glossary On
Versions: 1 2 3 4 5 6 7 8 9 10 11 12 13 14 15 16 17 18 19 20 21 22 23 24 25 26 27 28 29 30 31 32 33 34 35 36 37 38 39 40 41 42 43 44 45 46 47 48 49 50
000
NZUS59 KLOT 302106
HRRLOT

CHICAGO AREA WEATHER ROUNDUP
NATIONAL WEATHER SERVICE CHICAGO/ROMEOVILLE IL
400 PM CDT SAT AUG 30 2014

NOTE: "FAIR" INDICATES FEW OR NO CLOUDS BELOW 12,000 FEET WITH NO
SIGNIFICANT WEATHER AND/OR OBSTRUCTIONS TO VISIBILITY.

* THESE STATIONS ARE NOT UNDER NWS QUALITY CONTROL. THEY ALSO MAY NOT
  REPORT WEATHER SUCH AS PRECIPITATION OR FOG.

ILZ005-006-012>014-019>023-302200-
NORTHEAST ILLINOIS

CITY           SKY/WX    TMP DP  RH WIND       PRES   REMARKS
OHARE          PTSUNNY   82  64  54 SW20G28   29.83F HX  83
MIDWAY         PTSUNNY   86  67  52 W21       29.83F HX  89
AURORA         MOSUNNY   82  67  60 W13       29.86S HX  84
LANSING*         N/A    N/A N/A N/A MISG        N/A
JOLIET*        MOSUNNY   82  64  52 SW13G21   29.86S HX  84
WAUKEGAN       MOSUNNY   80  64  58 SW14G23   29.82S HX  82
DUPAGE AIRPORT MOSUNNY   82  67  60 SW16G24   29.85S HX  84
WHEELING       MOSUNNY   83  64  52 SW13G22   29.84F HX  84
KANKAKEE*      PTSUNNY   79  73  80 SW10      29.87F HX  83
MORRIS*        MOSUNNY   84  69  60 W12G17    29.85F HX  88
LEWIS AIRPORT* MOSUNNY   82  65  55 W14G21    29.85F HX  84
NORTHERLY IS     N/A     83  63  50 W15         N/A  HX  84
$$

WIZ051-052-058>065-066-070>072-302200-
SOUTHEAST WISCONSIN

CITY           SKY/WX    TMP DP  RH WIND       PRES   REMARKS
MILWAUKEE      PTSUNNY   78  66  66 W15       29.80S HX  80
KENOSHA*       PTSUNNY   78  67  68 SW17G23   29.82F HX  80
RACINE*        CLOUDY    78  66  66 SW9G20    29.82F HX  80
BURLINGTON     MOSUNNY   74  69  84 SW14      29.82S
WAUKESHA       PTSUNNY   72  66  83 SW15      29.82R
WEST BEND      PTSUNNY   73  64  73 W9        29.80S
$$

INZ001>003-010>013-019-020-302200-
NORTHWEST INDIANA

CITY           SKY/WX    TMP DP  RH WIND       PRES   REMARKS
GARY*          PTSUNNY   84  70  61 SW14G28   29.84F HX  88
MICHIGAN CITY* NOT AVBL
RENSSELAER*    NOT AVBL
VALPARAISO     CLOUDY    80  71  74 SW13      29.87F HX  84
$$

LMZ740>746-302200-
SOUTHERN LAKE MICHIGAN

STATION/POSITION TIME  SKY/WX   TEMP WIND        PRES    VSBY
                                AIR  DIR/SP/G
                 (UTC)          (F)  (DEG/KT/KT) (MB)    (MI)
HARRISON CRIB    2100            81  240/ 22/ 27   N/A
BURNHAM HARBOR   2100            83  270/  7/ 22   N/A
CALUMET HARBOR   2100            81  200/  9/ 17 1009.1F
BURNS HARBOR     NOT AVBL
MICHIGAN CITY    2100            79  190/ 14/ 18   N/A
$$

ABBREVIATIONS USED IN REMARKS
   TC - TEMPERATURE IN CELSIUS
  WCI - WIND CHILL INDEX
   HX - HEAT INDEX
  VSB - VISIBILITY
$$


USA.gov is the U.S. government's official web portal to all federal, state and local government web resources and services.